TimeEST,TemperatureF,Dew PointF,Humidity,Sea Level PressureIn,VisibilityMPH,Wind Direction,Wind SpeedMPH,Gust SpeedMPH,PrecipitationIn,Events,Conditions,WindDirDegrees,DateUTC
12:51 AM,32.0,28.0,85,30.54,10.0,SW,3.5,-,N/A,,Mostly Cloudy,220,2013-01-10 05:51:00
1:51 AM,32.0,28.0,85,30.56,10.0,SW,4.6,-,N/A,,Mostly Cloudy,230,2013-01-10 06:51:00
2:51 AM,30.0,27.0,88,30.56,10.0,Calm,Calm,-,N/A,,Scattered Clouds,0,2013-01-10 07:51:00
3:51 AM,28.4,26.6,93,30.54,10.0,SW,3.5,-,N/A,,Mostly Cloudy,220,2013-01-10 08:51:00
4:51 AM,26.6,24.8,93,30.53,8.0,SSW,4.6,-,N/A,,Mostly Cloudy,200,2013-01-10 09:51:00
5:51 AM,28.0,26.1,92,30.57,9.0,South,4.6,-,N/A,,Mostly Cloudy,180,2013-01-10 10:51:00
6:51 AM,28.4,26.6,93,30.57,8.0,South,3.5,-,N/A,,Mostly Cloudy,170,2013-01-10 11:51:00
7:51 AM,27.0,25.0,92,30.61,8.0,SE,3.5,-,N/A,,Scattered Clouds,130,2013-01-10 12:51:00
8:51 AM,28.9,27.0,92,30.62,6.0,SE,3.5,-,N/A,,Mostly Cloudy,130,2013-01-10 13:51:00
9:51 AM,35.1,30.0,82,30.62,9.0,East,3.5,-,N/A,,Mostly Cloudy,80,2013-01-10 14:51:00
10:51 AM,37.0,30.0,76,30.63,10.0,ENE,5.8,-,N/A,,Mostly Cloudy,70,2013-01-10 15:51:00
11:51 AM,39.0,28.9,67,30.59,10.0,ESE,6.9,-,N/A,,Mostly Cloudy,110,2013-01-10 16:51:00
12:51 PM,39.9,28.0,63,30.55,10.0,ESE,6.9,-,N/A,,Mostly Cloudy,110,2013-01-10 17:51:00
1:51 PM,41.0,28.9,62,30.53,10.0,SE,8.1,-,N/A,,Mostly Cloudy,140,2013-01-10 18:51:00
2:51 PM,42.1,28.9,60,30.51,10.0,SSE,5.8,-,N/A,,Mostly Cloudy,150,2013-01-10 19:51:00
3:51 PM,42.1,28.9,60,30.50,10.0,SSE,6.9,-,N/A,,Mostly Cloudy,160,2013-01-10 20:51:00
4:51 PM,39.9,27.0,60,30.46,10.0,SE,9.2,-,N/A,,Mostly Cloudy,130,2013-01-10 21:51:00
5:51 PM,37.9,28.9,70,30.45,10.0,SSE,5.8,-,N/A,,Overcast,160,2013-01-10 22:51:00
6:51 PM,39.0,28.0,65,30.43,10.0,SE,9.2,-,N/A,,Overcast,130,2013-01-10 23:51:00
7:51 PM,39.0,28.0,65,30.40,10.0,ESE,11.5,-,N/A,,Overcast,110,2013-01-11 00:51:00
8:51 PM,39.0,28.0,65,30.38,10.0,SE,4.6,-,0.00,,Overcast,130,2013-01-11 01:51:00
9:51 PM,39.0,28.0,65,30.33,10.0,ESE,4.6,-,N/A,,Overcast,120,2013-01-11 02:51:00
10:51 PM,41.0,27.0,57,30.28,10.0,ESE,3.5,-,N/A,,Overcast,120,2013-01-11 03:51:00
11:51 PM,42.1,26.1,53,30.23,10.0,SE,11.5,-,N/A,,Overcast,130,2013-01-11 04:51:00